Weather History for Athens, TX

Change the Weather History Date:

Tuesday, October 16, 2012

  Actual Average (KTYR) Record (KTYR)
Temperature  
Mean Temperature 60 °F 67 °F  
Max Temperature 80 °F 78 °F 98 °F (1910)
Min Temperature 53 °F 56 °F 36 °F (1966)
Degree Days  
Heating Degree Days 5 2  
Month to date heating degree days 19  
Since 1 July heating degree days 24  
Cooling Degree Days 0 4  
Month to date cooling degree days 86  
Year to date cooling degree days 2350  
Growing Degree Days 10 (Base 50)    
Moisture  
Dew Point 56 °F    
Average Humidity 86    
Maximum Humidity 96    
Minimum Humidity 69    
Precipitation  
Precipitation 0.00 in 0.17 in 2.55 in (1923)
Month to date precipitation 2.29  
Year to date precipitation 34.89  
Snow  
Snow - - - ()
Month to date snowfall  
Since 1 July snowfall  
Since 1 September snowfall  
Snow Depth -    
Sea Level Pressure  
Sea Level Pressure 29.87 in    
Wind  
Wind Speed 3 mph ()    
Max Wind Speed 13 mph    
Max Gust Speed 16 mph    
Visibility 10.0 miles    
Events      
T = Trace of Precipitation, MM = Missing Value Source: Averaged Metar Reports

Daily Weather History Graph

Daily Weather History Graph

Search for Another Location

Airport:

Trip Planner

Search our weather history database for the weather conditions in past years. The results will help you decide how hot, cold, wet, or windy it might be!

Date:

Astronomy

Oct. 16, 2012 Rise Set
Actual Time 7:27 AM CDT 6:48 PM CDT
Civil Twilight 7:03 AM CDT 7:13 PM CDT
Nautical Twilight 6:34 AM CDT 7:42 PM CDT
Astronomical Twilight 6:06 AM CDT 8:10 PM CDT
Moon 8:44 AM CDT (10/16) 7:42 PM CDT (10/16)
Length of Visible Light 12h 10m
Length of Day
11h 21m
New Moon, 2% of the Moon is Illuminated
Oct 16
New Moon
Oct 21
First Quarter
Oct 29
Full
Nov 6
Last Quarter
Nov 13
New

Hourly Weather History & Observations

Time (CDT) Temp. Dew Point Humidity Pressure Visibility Wind Dir Wind Speed Gust Speed Precip Events Conditions
12:15 AM 54.9 °F 53.4 °F 95% 30.00 in 10.0 mi Calm Calm - N/A   Clear
12:35 AM 54.3 °F 52.5 °F 94% 30.00 in 10.0 mi Calm Calm - N/A   Clear
12:55 AM 54.1 °F 52.3 °F 94% 29.99 in 10.0 mi Calm Calm - N/A   Clear
1:15 AM 53.6 °F 52.2 °F 95% 29.99 in 10.0 mi Calm Calm - N/A   Clear
1:35 AM 53.8 °F 52.0 °F 94% 29.98 in 10.0 mi Calm Calm - N/A   Clear
1:55 AM 54.1 °F 52.3 °F 94% 29.98 in 10.0 mi Calm Calm - N/A   Clear
2:15 AM 53.6 °F 52.2 °F 95% 29.97 in 10.0 mi Calm Calm - N/A   Clear
2:35 AM 53.4 °F 51.8 °F 94% 29.96 in 10.0 mi Calm Calm - N/A   Clear
2:55 AM 54.0 °F 52.0 °F 93% 29.96 in 10.0 mi Calm Calm - N/A   Clear
3:15 AM 54.3 °F 52.7 °F 94% 29.94 in 10.0 mi Calm Calm - N/A   Clear
3:35 AM 54.1 °F 52.5 °F 94% 29.94 in 10.0 mi Calm Calm - N/A   Clear
3:55 AM 54.3 °F 52.7 °F 94% 29.94 in 10.0 mi Calm Calm - N/A   Clear
4:15 AM 54.5 °F 52.7 °F 94% 29.94 in 10.0 mi Calm Calm - N/A   Clear
4:35 AM 54.3 °F 52.7 °F 94% 29.93 in 10.0 mi Calm Calm - N/A   Clear
4:55 AM 54.3 °F 52.7 °F 94% 29.93 in 10.0 mi Calm Calm - N/A   Clear
5:15 AM 54.5 °F 52.9 °F 94% 29.93 in 10.0 mi Calm Calm - N/A   Clear
5:35 AM 54.9 °F 52.9 °F 93% 29.93 in 10.0 mi Calm Calm - N/A   Clear
5:55 AM 54.9 °F 53.2 °F 94% 29.93 in 10.0 mi Calm Calm - N/A   Clear
6:15 AM 54.9 °F 53.4 °F 95% 29.93 in 10.0 mi Calm Calm - N/A   Clear
6:35 AM 55.0 °F 53.4 °F 94% 29.93 in 10.0 mi Calm Calm - N/A   Clear
7:15 AM 55.4 °F 53.8 °F 94% 29.92 in 10.0 mi Calm Calm - N/A   Clear
7:35 AM 55.4 °F 53.8 °F 94% 29.92 in 10.0 mi Calm Calm - N/A   Clear
7:55 AM 55.6 °F 54.0 °F 94% 29.92 in 10.0 mi Calm Calm - N/A   Clear
8:15 AM 55.9 °F 54.0 °F 93% 29.93 in 10.0 mi Calm Calm - N/A   Clear
8:35 AM 56.5 °F 54.5 °F 93% 29.93 in 10.0 mi Calm Calm - N/A   Clear
8:55 AM 57.2 °F 54.9 °F 92% 29.94 in 10.0 mi Calm Calm - N/A   Clear
9:15 AM 58.5 °F 55.4 °F 90% 29.94 in 10.0 mi Calm Calm - N/A   Scattered Clouds
9:35 AM 60.1 °F 54.7 °F 82% 29.94 in 10.0 mi South 4.6 mph - N/A   Clear
9:55 AM 61.2 °F 54.5 °F 79% 29.94 in 10.0 mi South 6.9 mph - N/A   Scattered Clouds
10:15 AM 62.4 °F 55.0 °F 77% 29.94 in 10.0 mi South 8.1 mph - N/A   Scattered Clouds
10:35 AM 63.5 °F 55.2 °F 74% 29.93 in 10.0 mi South 8.1 mph - N/A   Mostly Cloudy
10:55 AM 63.9 °F 55.4 °F 74% 29.92 in 10.0 mi South 8.1 mph - N/A   Mostly Cloudy
11:15 AM 64.8 °F 55.2 °F 71% 29.92 in 10.0 mi South 5.8 mph - N/A   Scattered Clouds
11:35 AM 65.3 °F 55.4 °F 70% 29.93 in 10.0 mi Calm Calm - N/A   Mostly Cloudy
11:55 AM 65.7 °F 55.6 °F 70% 29.91 in 10.0 mi South 10.4 mph - N/A   Mostly Cloudy
12:15 PM 65.8 °F 55.6 °F 69% 29.91 in 10.0 mi South 6.9 mph - N/A   Scattered Clouds
12:35 PM 66.0 °F 55.8 °F 69% 29.91 in 10.0 mi SSE 3.5 mph - N/A   Scattered Clouds
12:55 PM 66.2 °F 55.9 °F 69% 29.90 in 10.0 mi South 5.8 mph - N/A   Mostly Cloudy
1:15 PM 66.4 °F 56.5 °F 70% 29.88 in 10.0 mi South 6.9 mph - N/A   Mostly Cloudy
1:35 PM 66.4 °F 56.3 °F 70% 29.88 in 10.0 mi South 3.5 mph - N/A   Mostly Cloudy
1:55 PM 66.2 °F 56.1 °F 70% 29.85 in 10.0 mi Calm Calm - N/A   Mostly Cloudy
2:15 PM 66.2 °F 56.5 °F 71% 29.86 in 10.0 mi Calm Calm - N/A   Scattered Clouds
2:35 PM 66.6 °F 56.7 °F 70% 29.86 in 10.0 mi Calm Calm - N/A   Mostly Cloudy
2:55 PM 66.7 °F 56.8 °F 70% 29.84 in 10.0 mi South 6.9 mph - N/A   Overcast
3:15 PM 67.1 °F 57.2 °F 70% 29.82 in 10.0 mi SSE 11.5 mph - N/A   Mostly Cloudy
3:35 PM 67.1 °F 57.4 °F 71% 29.82 in 10.0 mi South 12.7 mph - N/A   Scattered Clouds
3:55 PM 66.4 °F 57.6 °F 73% 29.81 in 10.0 mi South 12.7 mph - N/A   Scattered Clouds
4:15 PM 65.5 °F 57.7 °F 76% 29.81 in 10.0 mi South 10.4 mph - N/A   Mostly Cloudy
4:35 PM 65.3 °F 57.6 °F 76% 29.80 in 10.0 mi South 9.2 mph - N/A   Overcast
4:55 PM 64.8 °F 57.7 °F 78% 29.80 in 10.0 mi South 8.1 mph 16.1 mph N/A   Mostly Cloudy
5:15 PM 64.6 °F 58.1 °F 79% 29.80 in 10.0 mi South 9.2 mph - N/A   Mostly Cloudy
5:35 PM 64.4 °F 58.5 °F 81% 29.79 in 10.0 mi South 10.4 mph - N/A   Scattered Clouds
5:55 PM 64.9 °F 59.0 °F 81% 29.77 in 10.0 mi South 10.4 mph - N/A   Clear
6:15 PM 64.8 °F 59.2 °F 82% 29.78 in 10.0 mi South 8.1 mph 16.1 mph N/A   Clear
6:35 PM 64.2 °F 59.5 °F 85% 29.78 in 10.0 mi South 6.9 mph - N/A   Clear
6:55 PM 63.9 °F 59.5 °F 86% 29.77 in 10.0 mi South 9.2 mph 16.1 mph N/A   Clear
7:15 PM 63.0 °F 59.9 °F 90% 29.77 in 10.0 mi South 6.9 mph - N/A   Clear
7:35 PM 62.6 °F 59.9 °F 91% 29.76 in 10.0 mi South 11.5 mph 16.1 mph N/A   Clear
7:55 PM 62.2 °F 59.9 °F 92% 29.76 in 10.0 mi South 10.4 mph - N/A   Clear
8:15 PM 62.2 °F 59.9 °F 92% 29.76 in 10.0 mi South 10.4 mph - N/A   Scattered Clouds
8:35 PM 62.1 °F 59.9 °F 93% 29.76 in 10.0 mi South 8.1 mph - N/A   Scattered Clouds
8:55 PM 61.9 °F 59.9 °F 93% 29.76 in 10.0 mi South 8.1 mph - N/A   Mostly Cloudy
9:15 PM 61.9 °F 59.9 °F 93% 29.76 in 10.0 mi South 10.4 mph 16.1 mph N/A   Overcast
9:35 PM 61.9 °F 59.9 °F 93% 29.75 in 10.0 mi South 10.4 mph 16.1 mph N/A   Overcast
9:55 PM 61.7 °F 59.9 °F 94% 29.75 in 10.0 mi South 10.4 mph - N/A   Overcast
10:15 PM 61.5 °F 59.9 °F 94% 29.74 in 10.0 mi South 9.2 mph - N/A   Mostly Cloudy
10:35 PM 61.3 °F 60.1 °F 96% 29.74 in 10.0 mi South 10.4 mph - N/A   Mostly Cloudy
10:55 PM 61.3 °F 60.1 °F 96% 29.75 in 10.0 mi South 6.9 mph - N/A   Overcast
11:15 PM 61.2 °F 60.1 °F 96% 29.74 in 10.0 mi South 6.9 mph - N/A   Mostly Cloudy
11:35 PM 61.2 °F 60.1 °F 96% 29.74 in 10.0 mi South 9.2 mph - N/A   Mostly Cloudy
11:55 PM 61.2 °F 60.1 °F 96% 29.74 in 10.0 mi South 11.5 mph - N/A   Overcast